Weather in Kulevatovo

Russia / Tambov Oblast     53°11′13″N   41°35′34″E
temp.,
°C
wind,
m/s
gust,
m/s
humid.,
%
clouds,
%
prec.,
mm/h
press.,
hPa
HPBL,
m
28 september, tue
tue2800:00+7ne4790100 0.7 1020898
03:00+6ne4890100 0.9 1021600
06:00+6ne5792100 0.1 1023832
09:00+6ne5888100 0.3 1024858
12:00+6ne6778100 0.1 1026906
15:00+6ne5776100 0.1 1028831
18:00+6ne4877100 0.0 1029664
21:00+4nne228211 0.0 103131
29 september, wed
wed2900:00+3nne35845 0.0 1032100
03:00+2nne35845 0.0 103292
06:00+1nne368651 0.0 1033122
09:00+6nne466725 0.0 1033374
12:00+10nne45495 0.0 10331135
15:00+11n44455 0.0 10321363
18:00+7n356059 0.0 103271
21:00+6n336671 0.0 103347
30 september, thu
thu3000:00+5n22736 0.0 103320
03:00+4n22805 0.0 103334
06:00+3n34845 0.0 103471
09:00+7nne35695 0.0 1034351
12:00+11ne34535 0.0 10341039
15:00+12nne334932 0.0 10331437
18:00+9n346418 0.0 103350
21:00+9nnw226251 0.0 103437
1 october, fri
fri100:00+7nnw2273100 0.0 103421
03:00+8nw2472100 0.0 1035103
06:00+8nw2575100 0.0 1035129
09:00+10nnw357396 0.0 1035266
12:00+11nnw3466100 0.0 1035554
15:00+12nnw3464100 0.0 1035604
18:00+11nnw2373100 0.0 103484
21:00+11nw2272100 0.0 103523
2 october, sat
sat200:00+10nnw2273100 0.0 103531
03:00+10nnw2274100 0.0 103541
06:00+10n2275100 0.0 103444
09:00+11n2268100 0.0 1035226
12:00+14nnw225738 0.0 1034641
15:00+16nnw22495 0.0 10331148
18:00+12nne22645 0.0 103310
21:00+10nne11715 0.0 103410